User: anonymous   Login
Location: Brainerd
(46.3580°N, 94.2010°W)
Time: 15:08:50
(UTC-05:00)
Language:

CZ-4C R/B - Orbit

View from above orbital plane
View from above orbital plane
View from above satellite
View from above satellite

Ground track
Ground track

The orbit data is extracted from the following two-line orbital elements,

1 32290U 07055B   17262.86887312 +.00003143 +00000-0 +88092-4 0  9996
2 32290 097.5372 011.3431 0067062 153.5814 206.8875 15.35154146546266
Epoch (UTC): 19 September 2017 20:51:10
Eccentricity: 0.0067062
inclination: 97.5372°
perigee height: 414 km
apogee height: 506 km
right ascension of ascending node: 11.3431°
argument of perigee: 153.5814°
revolutions per day: 15.35154146
mean anomaly at epoch: 206.8875°
orbit number at epoch: 54626

The dashed part of the orbit path shows where the satellite is in the earth's shadow,  

DLR